FENGYUN 1C DEB, 29922

Orbit data source: Space-Track

FENGYUN 1C DEB, 29922 is space debris in SSO originally from a launch on Mon, 10 May 1999 UTC launched from the Taiyaun Space Center, China (TSC). Fengyun 1C debris stems from the Chinese weather satellite Fengyun-1C, which was intentionally destroyed by a Chinese anti-satellite missile in 2007. This event dramatically increased the amount of space debris, with thousands of trackable fragments posing hazards to satellites and human spaceflight. The Fengyun 1C debris cloud has become a focal point in discussions about space sustainability and the need for international regulations to prevent the creation of new debris.

Loading next visibility...
Identifier
29922, 1999-025HU
Orbit
SSO
Country
Flag of CNCN / PRC
Related business
Manufacturer
Unknown
Mission
Spacecraft
Bus & Motor
Unknown
Mass
Unknown
Launch date (UTC)
1999-05-10 (27 years ago)
Launch vehicle
Unknown
Launch site
Taiyaun Space Center, China (TSC)
Object type
Payload
Rocket body
Debris
Shape & HBR
Unknown shape, 0.1 m
Radar Cross Section
Medium (>0.1 m² and <1 m²)

Expand to show TLE details & history
Last TLE update: 16 hours ago

TLE from 16 hours ago
0 FENGYUN 1C DEB
1 29922U 99025HU  26164.39521066  .00000355  00000-0  26871-3 0  9990
2 29922  99.1089 225.8759 0092097 224.3674 135.0084 13.98687355989940
Epoch: 2026-06-13T09:29Z
TLE epoch observation values (Epoch: 2026-06-13T09:29:06.201Z)
Latitude
-0.00001°
Longitude
-178.11086°
Altitude
948.924 km
Speed
7.353 km/s
True Right ascension
15h 03m 30s
True Declination
0° 00' 00"
Sunlit
Object was in full shadow at epoch
Visualization orbit readout
Latitude
Unknown
Longitude
Unknown
Altitude
Unknown
Speed
Unknown
Apparent Right ascension
Unknown
Apparent Declination
Unknown
Sunlit
N/A
Visualization observer readout
Local Sidereal Time
12:17:15
Azimuth
Unknown
Elevation
Unknown
Doppler factor
Unknown
Orbital elements
Apogee altitude
962.539 km
Perigee altitude
828.562 km
Semi-major axis
7,273.687 km
Eccentricity
0.00921
Inclination
99.1089°
RAAN
225.8759°
Arg. of periapsis
224.3674°
True anomaly
135.74849°
Mean anomaly
135.0084°
Eccentric anomaly
135.37905°
Mean motion
3.49874 °/min
Orbital period
102.89 mins
BSTAR
0.00026871
Loading maneuver chart data...
Computing Atmospheric mass density...
Loading historical data...
Loading historical data...
Loading historical data...
Loading historical data...
Loading historical data...
Loading historical data...
Loading historical data...

Documentation

Showing up to 5 results
|